SCP
-0 -0 0 0 0 0 0 0 0 0 0 0 0 0 0 0 0 1 1 1 1 1 1 1 1 1 0 0 0 0 0 0 0 0 0 0 0 0 0 0 0 0 0 0 0 0 0 0 0
-0 -0 0 0 0 0 0 0 0 0 0 0 0 0 0 0 0 0 1 1 1 1 0 1 1 1 0 0 0 0 0 0 0 0 0 0 0 0 0 0 0 0 0 0 0 0 0 0 0
0 0 0 0 0 0 0 0 0 0 0 0 0 0 0 0 0 0 0 0 0 1 1 1 1 1 0 0 0 0 0 0 0 0 0 0 0 0 0 0 0 0 0 0 0 0 0 0 0
0 0 0 0 0 0 0 0 0 0 0 0 0 0 0 0 0 0 0 0 0 1 1 1 1 1 0 0 0 0 0 0 0 0 0 0 0 0 0 0 0 0 0 0 0 0 0 0 0
0 0 0 0 0 0 0 0 0 0 0 0 0 0 0 0 0 0 0 0 0 0 1 1 1 0 0 0 0 0 0 0 0 0 0 0 0 0 0 0 0 0 0 0 0 0 0 0 0
0 0 0 0 0 0 0 0 0 0 0 0 0 0 0 0 0 0 0 0 0 0 0 0 0 0 0 0 0 0 0 0 0 0 0 0 0 0 0 0 0 0 0 0 0 0 0 0 0
0 0 0 0 0 0 0 0 0 0 0 0 0 0 0 0 0 0 0 0 0 0 0 0 0 0 0 0 0 0 0 0 0 0 0 0 0 0 0 0 0 0 0 0 0 0 0 0 0
0 0 0 0 0 0 0 0 0 0 0 0 0 0 0 1 1 0 0 0 0 0 0 0 0 0 0 0 0 0 0 0 0 0 0 0 0 0 0 0 0 0 0 0 0 0 0 0 0
0 0 0 0 0 0 0 0 0 0 0 0 0 0 0 1 1 1 1 1 0 1 1 1 0 0 0 0 0 0 0 0 0 0 0 0 0 0 0 0 0 0 0 0 0 0 0 0 -0
0 0 0 0 0 0 0 0 0 0 0 0 0 0 1 1 1 1 1 1 1 1 1 1 1 0 0 0 0 0 0 0 0 0 0 0 0 0 0 0 0 0 0 0 0 0 -0 -0 0
0 0 0 0 0 0 0 0 0 0 0 0 0 1 1 1 1 1 1 1 1 1 1 1 1 0 0 0 0 0 0 0 0 0 0 0 0 0 0 0 0 0 0 0 0 0 0 0 0
0 0 0 0 0 0 0 0 0 0 0 0 0 1 1 1 1 1 1 1 1 1 0 1 1 1 1 1 0 0 0 1 1 1 0 0 0 0 0 0 0 0 0 0 0 0 0 0 0
0 0 0 0 0 0 0 0 0 0 0 0 0 0 1 1 1 1 1 1 1 1 1 1 1 1 1 1 1 1 1 1 1 1 0 0 0 0 1 1 1 0 0 0 0 0 0 0 0
0 0 0 0 0 0 0 0 0 0 0 0 0 0 1 1 1 1 1 2 2 2 1 1 1 2 1 1 1 1 1 1 1 1 1 0 1 1 1 1 1 1 1 1 1 1 1 1 1
0 0 0 0 0 0 0 0 0 0 0 0 0 0 1 1 1 1 2 3 3 3 2 2 2 2 2 1 1 1 1 1 1 1 1 1 1 1 1 1 1 1 1 1 1 1 1 1 1
0 0 0 0 0 0 0 0 0 0 0 0 0 0 1 1 2 2 3 4 4 4 3 2 2 2 2 1 2 2 2 2 2 2 2 1 1 1 1 1 1 1 1 1 1 1 1 1 1
0 0 0 0 0 0 0 0 0 0 0 0 0 0 1 2 3 4 5 5 6 5 4 3 3 3 3 3 3 3 4 3 3 2 2 1 1 1 1 1 1 1 1 1 1 1 1 0 0
0 0 0 0 0 0 0 0 0 0 0 0 0 0 1 2 4 6 6 6 6 6 5 4 4 5 5 5 5 5 4 3 3 2 2 1 1 1 1 1 1 1 1 0 0 0 0 0 0
0 0 0 0 0 0 0 0 0 0 0 0 0 0 1 3 6 7 7 6 6 7 6 6 6 8 7 7 6 5 4 3 2 1 1 1 0 0 0 0 0 0 0 0 0 0 0 0 0
0 0 0 0 0 0 0 0 0 0 0 0 0 0 1 4 7 9 8 7 6 6 6 7 8 9 9 8 7 5 4 2 1 1 1 0 0 0 0 0 0 0 0 0 0 0 0 0 0
0 0 0 0 0 0 0 0 0 0 0 0 0 0 1 4 8 10 9 7 6 6 6 7 9 9 9 8 6 4 3 2 1 1 0 0 0 0 0 0 0 0 0 0 0 0 0 0 0
0 0 0 0 0 0 0 0 0 0 0 0 0 0 0 3 7 10 10 8 6 6 6 7 8 8 8 7 5 4 2 2 1 1 0 0 0 0 0 0 0 0 0 0 0 0 0 0 0
0 0 0 0 0 0 0 0 0 0 0 0 0 0 0 2 6 9 9 8 6 6 6 6 7 7 7 6 5 4 3 2 1 0 0 0 0 0 0 0 0 0 0 0 0 0 0 0 0
0 0 0 0 0 0 0 0 0 0 0 0 0 0 0 2 5 9 9 7 6 5 5 5 5 5 5 4 4 3 2 1 1 0 0 0 0 0 0 0 0 0 0 0 0 0 0 0 0
0 0 -0 0 0 0 0 0 0 0 0 0 0 0 1 3 6 8 8 6 5 4 4 3 3 3 2 2 1 1 1 0 0 0 0 0 0 0 0 0 0 0 0 0 0 0 0 0 0
0 0 0 0 0 0 0 0 0 0 0 0 0 1 3 5 7 7 6 4 3 2 2 1 1 1 1 0 0 0 0 0 0 0 0 0 0 0 0 0 0 0 0 0 0 0 0 0 0
0 0 0 0 0 0 0 0 0 0 0 0 0 2 4 6 6 5 3 2 1 1 1 0 0 0 0 0 0 0 0 0 0 0 0 0 0 0 0 0 0 0 0 0 0 0 0 0 0
0 0 0 0 0 0 0 0 0 0 0 0 1 2 4 4 3 2 1 1 0 0 0 0 0 0 0 0 0 0 0 0 0 0 0 0 0 0 0 0 0 0 0 0 0 0 0 0 0
0 0 0 0 0 0 0 0 0 0 0 0 1 3 3 2 1 1 0 0 0 0 0 0 0 0 0 0 0 0 0 0 0 0 0 0 0 0 0 0 0 0 0 0 0 0 0 0 0
0 0 0 0 0 0 0 0 0 0 0 0 2 3 3 2 1 0 0 0 0 0 0 0 0 0 0 0 0 0 0 0 0 0 0 0 0 0 0 0 0 0 0 0 0 0 0 0 0
Wind_Speed
8 12 11 9 8 10 17 19 1 11 10 10 12 10 17 18 13 10 8 14 21 19 16 15 14 13 13 13 13 13 13 13 13 12 12 11 10 9 9 8 8 7 8 8 8 8 9 8 8
10 13 10 8 10 13 17 8 16 17 9 1 7 10 16 15 14 11 11 12 19 18 15 15 15 13 13 13 13 13 13 13 13 12 12 11 10 9 8 8 7 6 6 6 7 8 8 7 6
12 15 8 9 15 15 12 9 19 16 14 8 8 12 16 11 11 10 11 11 15 16 16 16 15 13 12 12 13 13 13 13 13 12 11 10 9 8 7 7 7 7 7 7 7 7 7 6 5
8 9 8 11 19 19 3 6 14 15 11 8 10 12 14 9 11 14 13 12 15 17 17 16 15 13 12 11 12 12 13 13 12 11 10 9 8 7 6 6 6 7 7 6 6 6 7 6 4
10 8 12 15 19 9 7 6 8 11 10 8 10 16 13 12 18 16 13 13 13 16 17 16 15 13 12 11 11 11 11 11 10 9 8 7 6 5 5 6 7 7 7 7 7 7 6 5 3
9 9 13 15 16 4 7 8 7 6 7 9 10 16 13 13 16 14 14 12 13 16 17 15 15 14 12 11 10 10 9 9 8 8 7 6 5 4 4 5 6 7 8 8 7 6 5 3 1
11 12 16 17 9 6 7 10 9 5 2 6 9 15 13 14 15 13 14 12 13 17 17 14 13 12 12 11 11 10 10 8 7 6 6 6 6 5 5 6 6 7 7 7 6 5 4 3 3
11 11 18 17 9 6 8 9 12 8 4 3 5 10 15 16 15 14 14 12 13 15 16 14 14 12 11 11 12 11 9 8 8 8 8 8 8 7 7 7 7 8 7 7 6 5 5 5 6
15 13 15 17 6 4 7 9 14 15 12 9 5 14 20 21 18 16 15 12 11 14 14 14 14 13 12 12 12 12 11 10 10 9 10 8 6 7 6 7 9 9 8 7 7 7 8 8 8
13 13 18 13 3 2 6 8 10 14 13 11 9 18 22 20 18 17 17 16 14 14 14 14 14 14 13 11 11 9 10 10 9 8 9 6 4 4 7 9 10 10 10 9 10 10 9 9 6
17 19 18 12 6 6 6 6 9 11 12 10 6 11 18 19 17 16 17 16 15 14 12 14 13 11 10 8 9 7 6 7 8 7 6 5 5 5 6 5 6 7 9 7 8 9 7 5 2
18 19 18 14 7 5 10 12 10 12 8 9 13 2 9 17 17 15 16 17 16 14 12 13 12 9 10 8 7 7 6 5 5 5 4 4 3 3 4 5 6 6 5 5 5 4 4 1 0
19 18 17 13 11 10 14 15 12 12 7 9 16 20 19 17 16 15 15 18 17 13 8 11 9 7 5 4 3 5 5 6 7 5 3 3 2 2 1 2 2 2 2 1 2 3 4 4 4
17 17 17 16 16 14 16 15 16 15 11 12 14 19 21 16 14 14 15 16 16 11 7 8 9 7 6 3 0 3 5 4 6 5 5 2 3 4 4 3 4 4 4 4 3 5 4 3 3
18 17 17 16 16 16 18 18 19 16 13 13 12 13 14 13 12 14 15 16 17 12 9 7 8 9 7 6 4 3 4 4 5 5 5 4 5 4 3 2 4 4 3 4 4 5 4 4 5
17 18 18 17 17 19 21 20 17 15 14 11 10 10 10 11 15 15 17 14 16 13 11 8 9 11 8 6 5 3 5 6 6 6 6 6 6 5 3 5 5 4 4 5 4 5 5 5 5
17 17 19 20 22 22 23 20 16 15 10 9 9 9 11 11 13 15 18 16 14 13 11 9 7 12 10 7 6 7 7 7 6 6 6 6 6 6 5 6 4 4 5 5 6 6 5 5 5
16 18 21 22 21 23 24 18 14 14 8 10 10 9 9 12 13 15 16 15 12 11 10 9 8 11 10 8 6 6 7 7 7 6 6 6 6 7 5 6 5 5 4 4 4 3 3 3 4
20 21 19 17 17 19 19 16 14 15 11 13 12 11 10 11 14 15 13 14 12 10 9 8 8 9 8 7 8 7 7 7 7 7 8 8 7 7 5 5 3 2 3 2 2 3 4 4 4
21 21 20 17 15 14 12 13 13 14 18 13 14 12 10 12 17 17 15 12 12 10 8 7 8 10 9 7 6 6 7 7 7 7 6 7 6 4 5 4 3 4 2 1 2 3 2 4 4
17 16 16 16 16 17 18 18 14 14 21 21 15 15 14 12 19 20 18 15 13 11 9 8 8 9 9 10 8 8 7 7 7 7 5 5 5 6 5 4 4 4 3 4 3 3 4 3 5
13 13 15 16 16 15 18 17 16 18 21 22 20 18 17 14 17 20 18 16 13 11 8 7 9 8 9 9 10 11 9 8 8 6 5 5 4 5 4 4 4 3 3 4 4 6 3 3 4
13 13 15 15 15 16 17 18 17 17 19 17 18 19 16 15 17 21 19 15 12 11 8 8 9 9 8 7 8 7 7 7 5 6 6 5 5 4 3 4 3 1 2 4 3 3 2 3 4
13 13 14 14 13 17 17 19 19 17 19 15 14 13 13 14 16 20 18 15 12 11 9 9 9 8 7 8 7 7 8 7 7 5 5 3 5 5 4 5 2 0 3 3 1 1 2 1 1
14 11 10 13 14 17 19 20 17 17 18 12 4 2 2 6 16 19 18 16 15 13 11 9 9 9 8 9 8 8 7 6 5 3 3 0 3 6 4 4 1 1 2 1 1 1 2 3 3
14 15 12 13 13 13 12 10 9 10 6 1 3 5 8 14 18 18 17 16 15 14 12 11 10 9 9 9 8 6 4 3 4 4 2 2 4 6 4 3 2 1 1 1 2 2 4 3 2
16 15 16 15 17 17 15 16 14 6 7 7 5 5 15 19 19 18 16 14 13 13 11 10 10 9 9 9 7 6 6 6 6 3 2 4 3 3 3 0 1 1 1 2 2 3 4 4 5
17 15 11 13 14 15 15 16 10 8 4 1 5 13 18 17 17 17 15 13 12 11 10 9 8 9 9 8 6 6 5 5 4 4 5 4 3 3 0 2 2 2 3 3 4 4 4 4 5
14 17 15 12 12 14 13 9 5 6 4 2 5 16 17 14 15 15 14 13 13 11 10 8 8 8 7 6 6 6 4 4 3 4 4 3 2 0 3 3 3 3 4 4 4 4 5 6 6
15 15 14 12 14 15 14 11 6 8 8 6 2 18 18 16 15 15 14 14 12 11 9 8 7 6 6 6 5 4 3 2 3 4 4 2 1 2 3 4 4 5 5 4 5 6 7 7 7
Wind_Direction
238 255 254 262 250 245 255 256 125 73 55 54 57 59 62 49 53 94 110 96 101 108 117 118 112 113 111 111 110 110 111 111 111 111 111 111 109 106 102 98 94 92 95 101 106 107 105 101 96
260 249 252 249 253 250 257 234 86 80 62 291 90 76 73 68 77 101 111 110 113 118 129 124 119 117 116 115 115 113 112 111 110 110 112 112 111 108 105 103 100 98 100 105 109 111 112 110 107
259 257 253 243 243 255 293 96 108 121 174 195 94 71 63 77 90 109 119 134 118 119 119 124 128 124 123 121 120 120 119 118 118 118 117 115 112 109 108 108 107 106 106 109 116 123 124 123 123
239 226 233 244 248 241 221 87 122 146 163 134 106 91 80 77 100 115 140 142 122 121 122 131 132 131 130 129 129 130 130 129 128 126 125 123 121 118 115 113 114 114 115 118 122 126 126 127 125
235 246 237 248 250 236 126 126 139 137 141 135 115 106 98 88 102 125 146 131 125 126 124 134 138 139 140 140 139 138 138 137 135 133 131 130 129 125 119 116 117 120 120 118 116 116 116 114 110
234 238 244 245 244 172 144 137 118 109 144 142 120 109 113 121 121 139 132 129 125 123 122 133 140 147 150 150 149 146 147 146 142 141 140 139 138 135 127 121 121 121 119 116 114 114 117 121 144
251 259 262 265 256 164 146 131 126 139 198 150 139 119 124 133 132 137 131 132 127 123 126 141 144 153 157 155 156 156 152 150 151 155 154 158 158 155 145 135 128 126 124 125 128 136 149 175 216
252 272 275 271 253 175 154 147 141 150 214 208 173 121 134 136 141 139 136 131 129 129 133 141 151 152 157 159 160 158 153 156 164 170 172 174 172 169 163 160 140 142 144 147 154 169 189 207 225
244 256 267 271 250 157 172 176 161 174 171 199 154 123 142 144 146 146 138 138 136 130 134 141 149 156 161 158 157 159 159 164 166 174 181 182 186 173 175 162 153 163 166 171 184 199 211 218 227
231 245 251 275 313 154 185 194 179 180 171 195 143 124 137 148 151 157 149 152 148 140 147 154 157 165 165 157 156 165 170 170 185 174 177 194 180 174 168 154 173 178 182 189 208 217 226 226 222
227 243 266 296 306 319 303 217 206 211 186 191 134 129 145 156 160 164 156 155 148 150 164 158 162 159 149 155 169 170 170 167 183 160 170 173 168 170 166 169 178 188 193 202 216 221 229 219 168
233 246 257 282 297 296 281 277 226 222 216 148 106 108 180 173 168 167 156 148 146 156 168 155 151 150 160 170 168 157 152 159 137 145 177 169 192 189 180 189 182 191 196 202 204 222 203 122 305
235 246 260 269 281 277 271 273 271 234 196 140 149 173 198 189 176 165 152 144 146 149 156 139 140 133 125 114 148 149 133 139 133 155 186 172 187 193 127 78 67 360 83 123 341 9 38 17 338
245 241 247 257 262 262 266 269 266 252 203 178 186 186 182 184 175 158 150 143 137 134 136 125 130 130 123 124 246 108 126 125 146 151 146 130 63 59 51 44 41 16 30 44 358 5 8 353 2
257 255 252 244 250 255 259 255 254 248 225 195 194 196 173 170 167 163 152 143 138 140 136 132 148 143 151 165 183 155 131 134 116 105 98 75 68 67 53 60 57 22 9 28 22 7 358 3 357
247 244 251 249 242 243 249 253 253 241 229 204 207 205 177 166 174 169 149 139 140 146 142 161 178 152 163 178 177 138 111 100 90 88 80 70 66 57 43 62 54 8 17 31 25 23 10 9 358
246 239 243 245 236 233 236 244 253 270 221 198 216 216 181 175 173 155 144 142 142 143 148 176 182 151 163 156 121 97 91 91 91 90 88 75 67 63 65 70 46 15 39 37 22 31 9 349 341
235 236 236 240 242 236 232 233 236 263 219 211 225 228 196 179 160 144 144 143 140 140 154 177 167 148 150 135 118 111 106 101 97 95 94 90 77 64 67 85 57 35 50 48 35 6 343 314 290
255 265 268 260 243 246 233 230 244 259 234 215 226 232 211 184 148 137 145 147 147 148 161 170 162 144 141 137 137 133 127 118 109 102 94 85 81 74 61 78 80 63 69 54 14 22 337 324 322
240 256 268 276 285 286 272 235 236 262 273 248 221 234 229 177 143 146 152 156 158 161 167 170 158 147 144 137 133 129 123 115 105 96 93 95 93 86 84 59 42 45 11 33 47 40 350 332 347
246 255 266 274 278 274 274 261 243 251 266 267 236 223 241 203 162 158 160 164 168 169 174 173 157 152 142 135 125 117 109 114 118 121 115 114 110 90 71 64 49 26 3 63 36 35 24 351 327
246 252 262 269 272 271 271 270 250 237 240 245 243 228 227 221 179 165 165 168 165 159 163 163 151 147 135 135 139 144 149 150 142 138 130 125 96 89 83 70 64 36 11 54 35 59 4 338 316
253 253 255 259 260 262 266 272 271 266 253 242 240 224 219 225 190 170 165 159 147 141 141 137 136 132 137 138 141 146 129 121 124 120 132 133 116 109 103 95 70 32 68 78 49 48 2 332 2
246 261 262 262 263 260 256 259 264 260 263 253 249 209 209 222 180 158 151 139 123 116 113 116 118 113 106 98 93 93 102 113 122 129 140 165 146 136 126 115 94 351 73 77 75 89 289 19 360
226 238 249 241 237 247 248 249 256 256 260 264 271 135 237 159 139 137 136 133 126 118 114 114 112 105 99 94 89 89 92 99 106 115 126 281 135 121 100 99 114 57 99 213 194 216 264 249 232
233 225 241 261 266 271 277 273 275 282 266 190 104 88 89 99 113 122 129 132 130 126 124 122 118 113 107 99 93 92 112 134 103 56 95 92 66 99 129 147 180 221 260 310 59 324 282 271 254
242 237 237 248 263 273 280 287 287 250 225 206 199 122 100 102 109 117 123 129 129 127 123 121 120 116 110 103 97 86 69 74 94 97 54 92 74 112 94 328 256 256 263 267 257 254 270 264 253
227 246 251 249 258 270 279 283 298 347 340 126 86 94 103 112 119 125 129 129 125 122 115 112 115 115 114 121 133 120 109 106 126 115 77 76 82 74 332 262 267 274 265 254 249 261 267 277 275
226 231 242 261 269 273 276 283 30 24 30 72 143 130 129 131 130 129 128 125 124 123 121 116 111 108 106 99 90 104 114 127 137 118 118 109 87 260 265 292 303 296 285 279 280 284 289 292 296
265 251 244 250 253 258 269 282 53 34 6 344 149 133 134 135 131 128 127 127 127 126 121 110 103 100 99 99 94 96 111 136 146 122 110 120 126 290 311 313 308 307 316 326 325 328 337 339 332